Weather History for KMDQ - February, 2014

Change the Weather History Date:

Wednesday, February 12, 2014

  Actual Average (KHSV) Record (KHSV)
Temperature  
Mean Temperature 34 °F 45 °F  
Max Temperature 35 °F 55 °F 75 °F (1938)
Min Temperature 32 °F 35 °F 6 °F (1981)
Degree Days  
Heating Degree Days 32 20  
Month to date heating degree days 255  
Since 1 July heating degree days 2165  
Cooling Degree Days 0 0  
Month to date cooling degree days 0  
Year to date cooling degree days 0  
Moisture  
Dew Point 29 °F    
Average Humidity 87    
Maximum Humidity 100    
Minimum Humidity 44    
Precipitation  
Precipitation 0.33 in 0.17 in 3.10 in (1945)
Month to date precipitation 2.01  
Year to date precipitation 6.90  
Snow  
Snow 0.00 in - - ()
Month to date snowfall  
Since 1 July snowfall  
Snow Depth -    
Sea Level Pressure  
Sea Level Pressure 30.02 in    
Wind  
Wind Speed 2 mph (NNE)    
Max Wind Speed 7 mph    
Max Gust Speed -    
Visibility 4 miles    
Events Rain , Snow    
T = Trace of Precipitation, MM = Missing Value Source: NWS Daily Summary

Daily Weather History Graph

Daily Weather History Graph

Search for Another Location

Airport or City:

Trip Planner

Search our weather history database for the weather conditions in past years. The results will help you decide how hot, cold, wet, or windy it might be!

Date:

Astronomy

Feb. 12, 2014 Rise Set
Actual Time 6:35 AM CST 5:26 PM CST
Civil Twilight 6:09 AM CST 5:52 PM CST
Nautical Twilight 5:39 AM CST 6:22 PM CST
Astronomical Twilight 5:09 AM CST 6:51 PM CST
Moon 3:41 PM CST (2/12) 4:49 AM CST (2/12)
Length of Visible Light 11h 43m
Length of Day
10h 51m
Waxing Gibbous, 95% of the Moon is Illuminated
Feb 12
Waxing Gibbous
Feb 14
Full
Feb 22
Last Quarter
Mar 1
New
Mar 8
First Quarter

Hourly Weather History & Observations

Time (CST) Temp. Windchill Dew Point Humidity Pressure Visibility Wind Dir Wind Speed Gust Speed Precip Events Conditions
12:15 AM 33.8 °F 29.6 °F 14.0 °F 44% 30.17 in 10.0 mi NE 4.6 mph - N/A   Clear
12:35 AM 33.8 °F 29.6 °F 14.0 °F 44% 30.16 in 10.0 mi NE 4.6 mph - N/A   Clear
12:55 AM 33.8 °F 30.8 °F 14.0 °F 44% 30.15 in 10.0 mi ENE 3.5 mph - N/A   Clear
1:15 AM 33.8 °F 29.6 °F 14.0 °F 44% 30.17 in 10.0 mi North 4.6 mph - N/A   Clear
1:35 AM 33.8 °F 30.8 °F 17.6 °F 52% 30.17 in 10.0 mi North 3.5 mph - N/A   Scattered Clouds
1:55 AM 33.8 °F 28.6 °F 17.6 °F 52% 30.16 in 10.0 mi NNE 5.8 mph - N/A   Drizzle
2:15 AM 32.0 °F - 19.4 °F 60% 30.15 in 7.0 mi Calm Calm - N/A Rain Light Rain
2:35 AM 32.0 °F - 23.0 °F 69% 30.14 in 7.0 mi Calm Calm - N/A   Overcast
2:55 AM 32.0 °F - 23.0 °F 69% 30.14 in 7.0 mi Calm Calm - N/A   Overcast
3:15 AM 32.0 °F - 24.8 °F 75% 30.14 in 7.0 mi Calm Calm - N/A   Mostly Cloudy
3:35 AM 32.0 °F - 26.6 °F 80% 30.13 in 7.0 mi Calm Calm - N/A   Mostly Cloudy
3:55 AM 32.0 °F - 26.6 °F 80% 30.12 in 7.0 mi Calm Calm - N/A   Overcast
4:15 AM 32.0 °F 27.5 °F 26.6 °F 80% 30.12 in 7.0 mi NE 4.6 mph - N/A   Mostly Cloudy
4:35 AM 32.0 °F - 26.6 °F 80% 30.12 in 7.0 mi Calm Calm - N/A   Mostly Cloudy
4:55 AM 32.0 °F - 28.4 °F 87% 30.12 in 7.0 mi Calm Calm - N/A   Overcast
5:15 AM 32.0 °F 27.5 °F 28.4 °F 87% 30.12 in 7.0 mi North 4.6 mph - N/A   Mostly Cloudy
5:35 AM 32.0 °F 27.5 °F 26.6 °F 80% 30.10 in 7.0 mi NNE 4.6 mph - N/A   Mostly Cloudy
5:55 AM 32.0 °F - 28.4 °F 87% 30.11 in 7.0 mi Calm Calm - N/A   Mostly Cloudy
6:15 AM 32.0 °F 28.7 °F 28.4 °F 87% 30.11 in 7.0 mi North 3.5 mph - N/A   Mostly Cloudy
6:35 AM 32.0 °F - 28.4 °F 87% 30.11 in 4.0 mi Calm Calm - N/A   Overcast
6:55 AM 32.0 °F - 28.4 °F 87% 30.11 in 4.0 mi Calm Calm - N/A   Overcast
7:15 AM 32.0 °F 27.5 °F 28.4 °F 87% 30.11 in 3.0 mi North 4.6 mph - N/A   Overcast
7:35 AM 32.0 °F - 28.4 °F 87% 30.10 in 5.0 mi Calm Calm - N/A   Overcast
7:55 AM 32.0 °F - 30.2 °F 93% 30.10 in 4.0 mi Calm Calm - N/A   Overcast
8:15 AM 32.0 °F - 30.2 °F 93% 30.10 in 5.0 mi Calm Calm - N/A   Mostly Cloudy
8:35 AM 32.0 °F - 30.2 °F 93% 30.10 in 5.0 mi Calm Calm - N/A   Mostly Cloudy
8:55 AM 32.0 °F 27.5 °F 30.2 °F 93% 30.10 in 3.0 mi North 4.6 mph - N/A   Overcast
9:15 AM 32.0 °F - 30.2 °F 93% 30.09 in 2.5 mi Calm Calm - N/A   Overcast
9:35 AM 32.0 °F 28.7 °F 30.2 °F 93% 30.09 in 1.8 mi North 3.5 mph - N/A   Overcast
9:55 AM 33.8 °F 30.8 °F 32.0 °F 93% 30.08 in 1.5 mi NNE 3.5 mph - 0.01 in   Overcast
10:15 AM 33.8 °F 30.8 °F 32.0 °F 93% 30.08 in 1.5 mi North 3.5 mph - N/A Rain Rain
10:35 AM 33.8 °F - 32.0 °F 93% 30.07 in 1.5 mi Calm Calm - 0.01 in Rain Light Rain
10:55 AM 33.8 °F - 32.0 °F 93% 30.06 in 1.8 mi Calm Calm - 0.01 in Rain Rain
11:15 AM 35.6 °F 31.7 °F 32.0 °F 87% 30.06 in 3.0 mi East 4.6 mph - 0.01 in Rain Light Rain
11:35 AM 35.6 °F 32.8 °F 32.0 °F 87% 30.05 in 2.5 mi ENE 3.5 mph - 0.02 in Rain Rain
11:55 AM 35.6 °F 31.7 °F 32.0 °F 87% 30.03 in 1.5 mi East 4.6 mph - 0.04 in Rain Light Rain
12:15 PM 35.6 °F 31.7 °F 32.0 °F 87% 30.02 in 2.5 mi East 4.6 mph - 0.01 in Rain Rain
12:35 PM 35.6 °F - 32.0 °F 87% 30.00 in 3.0 mi Calm Calm - 0.02 in Rain Heavy Rain
12:55 PM 35.6 °F - 32.0 °F 87% 29.99 in 3.0 mi Calm Calm - 0.03 in Rain Light Rain
1:15 PM 35.6 °F - 32.0 °F 87% 29.97 in 2.5 mi Calm Calm - 0.01 in Rain Rain
1:35 PM 35.6 °F 32.8 °F 32.0 °F 87% 29.97 in 3.0 mi NE 3.5 mph - 0.01 in Rain Light Rain
1:55 PM 35.6 °F - 32.0 °F 87% 29.96 in 2.5 mi Calm Calm - 0.02 in Rain Rain
2:15 PM 35.6 °F - 32.0 °F 87% 29.94 in 3.0 mi Calm Calm - 0.01 in   Overcast
2:35 PM 35.6 °F - 32.0 °F 87% 29.94 in 3.0 mi Calm Calm - 0.02 in   Overcast
2:55 PM 35.6 °F 32.8 °F 32.0 °F 87% 29.93 in 3.0 mi NE 3.5 mph - 0.02 in Rain Light Rain
3:15 PM 33.8 °F 30.8 °F 32.0 °F 93% 29.92 in 3.0 mi NE 3.5 mph - 0.01 in   Overcast
3:35 PM 33.8 °F - 32.0 °F 93% 29.92 in 3.0 mi Calm Calm - 0.03 in   Overcast
3:55 PM 33.8 °F - 32.0 °F 93% 29.93 in 2.5 mi Calm Calm - 0.04 in Snow Light Snow
4:15 PM 33.8 °F - 32.0 °F 93% 29.92 in 2.0 mi Calm Calm - 0.01 in Snow Light Snow
4:35 PM 32.0 °F - 32.0 °F 100% 29.92 in 1.5 mi Calm Calm - 0.02 in Snow Light Snow
4:55 PM 32.0 °F - 30.2 °F 93% 29.92 in 1.2 mi Calm Calm - 0.03 in Snow Light Snow
5:15 PM 32.0 °F - 30.2 °F 93% 29.92 in 1.2 mi Calm Calm - 0.01 in Snow Light Snow
5:35 PM 32.0 °F - 30.2 °F 93% 29.92 in 1.5 mi Calm Calm - 0.02 in Snow Light Snow
6:15 PM 32.0 °F - 32.0 °F 100% 29.93 in 1.5 mi Calm Calm - 0.01 in Snow Light Snow
6:35 PM 32.0 °F 28.7 °F 32.0 °F 100% 29.93 in 1.8 mi NW 3.5 mph - 0.01 in Snow Light Snow
6:55 PM 32.0 °F 28.7 °F 32.0 °F 100% 29.93 in 1.5 mi NW 3.5 mph - 0.01 in Snow Light Snow
7:15 PM 32.0 °F 28.7 °F 32.0 °F 100% 29.93 in 1.2 mi NW 3.5 mph - 0.01 in Snow Light Snow
7:35 PM 32.0 °F - 32.0 °F 100% 29.92 in 1.8 mi Calm Calm - 0.02 in Snow Light Snow
7:55 PM 32.0 °F - 32.0 °F 100% 29.92 in 1.5 mi Calm Calm - 0.02 in Snow Light Snow
8:15 PM 32.0 °F - 32.0 °F 100% 29.91 in 1.2 mi Calm Calm - N/A Snow Light Snow
8:35 PM 32.0 °F 28.7 °F 32.0 °F 100% 29.91 in 1.0 mi NNW 3.5 mph - 0.02 in Snow Light Snow
8:55 PM 32.0 °F - 32.0 °F 100% 29.90 in 1.0 mi Calm Calm - 0.02 in Snow Light Snow
9:15 PM 32.0 °F - 32.0 °F 100% 29.90 in 1.2 mi Calm Calm - 0.01 in Snow Light Snow
9:35 PM 32.0 °F - 32.0 °F 100% 29.90 in 1.2 mi Calm Calm - 0.02 in Snow Light Snow
9:55 PM 32.0 °F - 32.0 °F 100% 29.89 in 1.0 mi Calm Calm - 0.03 in Snow Light Snow
10:15 PM 32.0 °F - 32.0 °F 100% 29.89 in 1.0 mi Calm Calm - 0.01 in Snow Light Snow
10:35 PM 32.0 °F - 32.0 °F 100% 29.88 in 1.0 mi Calm Calm - 0.02 in Snow Light Snow
10:55 PM 32.0 °F - 32.0 °F 100% 29.88 in 1.2 mi Calm Calm - 0.03 in Snow Light Snow
11:15 PM 32.0 °F 28.7 °F 32.0 °F 100% 29.88 in 1.5 mi NNW 3.5 mph - N/A Snow Light Snow
11:35 PM 32.0 °F 25.6 °F 32.0 °F 100% 29.88 in 2.0 mi NNW 6.9 mph - N/A Snow Light Snow
11:55 PM 32.0 °F 26.4 °F 32.0 °F 100% 29.87 in 3.0 mi North 5.8 mph - N/A Snow Light Snow